Regional Weather Roundup
Issued by NWS

Home | Current Version | Previous Version | Graphics & Text | Print | Product List | Glossary On
Versions: 1 2 3 4 5 6 7 8 9 10 11 12 13 14 15 16 17 18 19 20 21 22 23 24 25 26 27 28 29 30 31 32 33 34 35 36 37 38 39 40 41 42 43 44 45 46 47 48 49 50
000
ASUS43 KLOT 281710
RWRIL

ILLINOIS REGIONAL WEATHER ROUNDUP
NATIONAL WEATHER SERVICE CHICAGO/ROMEOVILLE IL
1200 PM CDT MON JUL 28 2014

NOTE: "FAIR" INDICATES FEW OR NO CLOUDS BELOW 12,000 FEET WITH NO
SIGNIFICANT WEATHER AND/OR OBSTRUCTIONS TO VISIBILITY.

* THESE STATIONS ARE NOT UNDER NWS QUALITY CONTROL. THEY ALSO MAY NOT
  REPORT WEATHER SUCH AS PRECIPITATION OR FOG.

ILZ001-002-007-009-015-016-024-281800-
NORTHWEST ILLINOIS

CITY           SKY/WX    TMP DP  RH WIND       PRES   REMARKS
MOLINE         SUNNY     71  48  43 N12       30.15R
STERLING*      SUNNY     72  50  46 N12G21    30.13S
SAVANNA*       SUNNY     71  45  39 N14G20    30.15R
$$

ILZ003-004-008-010-011-017-018-281800-
NORTH CENTRAL ILLINOIS

CITY           SKY/WX    TMP DP  RH WIND       PRES   REMARKS
ROCKFORD       MOSUNNY   70  47  43 N15G26    30.13S
FREEPORT*      SUNNY     65  47  52 N15G22    30.16R
ROCHELLE*      SUNNY     67  46  47 N16G24    30.12S
DE KALB*       SUNNY     65  49  54 N15G23    30.12S
PERU*          SUNNY     69  49  49 N16G23    30.12S
$$

ILZ005-006-012>014-019>023-281800-
NORTHEAST ILLINOIS

CITY           SKY/WX    TMP DP  RH WIND       PRES   REMARKS
CHICAGO-OHARE  MOSUNNY   67  42  40 N16G26    30.09R
CHICAGO-MIDWAY MOSUNNY   68  47  46 N15G26    30.08R
AURORA         MOSUNNY   68  48  48 N16       30.10R
LANSING*       SUNNY     64  49  58 N16G22    30.08S
JOLIET*        SUNNY     68  47  47 N10G16    30.09S
WAUKEGAN       SUNNY     64  44  48 N13G30    30.09R
DUPAGE AIRPORT SUNNY     69  47  45 N16G23    30.09R
KANKAKEE*      PTSUNNY   68  56  64 NW9       30.07S
WHEELING       SUNNY     68  44  42 N13G25    30.11R
MORRIS*        SUNNY     68  51  54 N6        30.08F
ROMEOVILLE*    MOSUNNY   68  47  48 N15       30.08S
NORTHERLY ISL    N/A     61  49  64 NW15        N/A
$$

LMZ740>746-281800-
SOUTHERN LAKE MICHIGAN

STATION/POSITION SKY/WX   TEMP    WIND        PRES    VSBY  WAVE
                          AIR SEA DIR/SP/G                  HT/PER
                          (F)     (DEG/KT/KT) (MB)    (MI)  (FT/S)
SOUTHERN BUOY              56 60  340/ 23/ 29 1017.7R         7/ 8
WAUKEGAN HARBOR            58      20/ 21/ 24   N/A
HARRISON CRIB              58     350/ 24/ 28   N/A
BURNHAM HARBOR             62     360/ 17/ 21   N/A
CALUMET HARBOR             62     340/ 13/ 23 1017.7R
MICHIGAN CITY              59     330/ 24/ 28   N/A
MICHIGAN CITY 6N           59 67  340/ 19/ 25   N/A           8/ 7
ST. JOSEPH                 58 66  340/ 17/ 23   N/A           9/ 8
$$

ILZ025>027-034>036-040-047-049-050-058-095>099-281800-
WEST-CENTRAL ILLINOIS

CITY           SKY/WX    TMP DP  RH WIND       PRES   REMARKS
QUINCY         PTSUNNY   70  58  65 N10       30.16R
GALESBURG*     MOSUNNY   70  53  55 N10       30.15S
MACOMB*        PTSUNNY   69  53  58 N10G18    30.17S
JACKSONVILLE*  MOSUNNY   72  57  58 N10G17    30.14S
PITTSFIELD*    CLOUDY    69  58  66 N6        30.16R
$$

ILZ028>032-037-038-041>044-048-051>054-059>061-281800-
CENTRAL ILLINOIS

CITY           SKY/WX    TMP DP  RH WIND       PRES   REMARKS
PONTIAC        MOSUNNY   70  54  56 N14       30.09R
DECATUR        MOSUNNY   71  55  56 NW12G17   30.09S
PEORIA         MOSUNNY   71  50  47 NW14G21   30.12S
LACON*         SUNNY     69  50  50 N13       30.11S
LINCOLN*       MOSUNNY   73  54  52 N13       30.08S
SPRINGFIELD    MOSUNNY   72  56  57 N9        30.12R
TAYLORVILLE    CLOUDY    68  57  68 NW10G16   30.10S
$$

ILZ033-039-045-046-055>057-062-063-281800-
EAST-CENTRAL ILLINOIS

CITY           SKY/WX    TMP DP  RH WIND       PRES   REMARKS
CHAMPAIGN        N/A    N/A N/A N/A MISG        N/A
DANVILLE*      MOSUNNY   68  57  67 NW7       30.03S HAZE
RANTOUL*       MOSUNNY   70  53  54 N9G17     30.08R
MATTOON        MOSUNNY   72  55  55 N14       30.07R
PARIS*         MOSUNNY   71  59  66 NW12G18   30.06S
$$

ILZ079-100>102-281800-
SOUTHWEST ILLINOIS

CITY           SKY/WX    TMP DP  RH WIND       PRES   REMARKS
ALTON          PTSUNNY   73  64  73 NW7       30.12R
BELLEVILLE     MOSUNNY   77  63  61 NW13G18   30.09S
CAHOKIA*       MOSUNNY   79  60  52 N14       30.11S HX  80
SPARTA*        PTSUNNY   73  63  68 NW7       30.11S
$$

ILZ064>066-069>071-074>076-080>082-084>086-088>090-092>094-281800-
SOUTH-CENTRAL ILLINOIS

CITY           SKY/WX    TMP DP  RH WIND       PRES   REMARKS
CARBONDALE     PTSUNNY   77  62  59 VRB7      30.08S
CAIRO*         PTSUNNY   79  64  60 NW9       30.07F HX  80
EFFINGHAM*     MOSUNNY   73  53  49 NW16      30.08S
MARION         PTSUNNY   77  63  61 NW9       30.09S
MT. VERNON     PTSUNNY   73  59  60 N7        30.08S
CENTRALIA*     MOSUNNY   80  58  47 NW9G20    30.08S HX  80
SALEM*         PTSUNNY  N/A N/A N/A NW12      30.09R
METROPOLIS*    PTSUNNY   78  57  47 N7        30.06F
$$

ILZ067-068-072-073-078-083-087-091-281800-
SOUTHEAST ILLINOIS

CITY           SKY/WX    TMP DP  RH WIND       PRES   REMARKS
LAWRENCEVILLE  MOSUNNY   74  61  63 NW12      30.04F
FLORA*         SUNNY     74  58  56 N8G18     30.07S
FAIRFIELD*     MOSUNNY   75  64  69 N9        30.06S
HARRISBURG*    PTSUNNY   75  62  64 NW9       30.08S
ROBINSON*      MOSUNNY   76  62  62 N14       30.05F
CARMI*         MOSUNNY   77  64  65 NW13      30.05S
$$

ABBREVIATIONS USED IN REMARKS
   TC - TEMPERATURE IN CELSIUS
  WCI - WIND CHILL INDEX
   HX - HEAT INDEX
  VSB - VISIBILITY
$$




USA.gov is the U.S. government's official web portal to all federal, state and local government web resources and services.